This is the latest recevied weather packets stored in our database for station/object KR4KUV. If no packets are shown the sender has not sent any weather packets the latest 10 day(s).
| Time | Temp. | Humidity | Pressure | Rain* | Wind** | Luminosity | Snow |
|---|---|---|---|---|---|---|---|
| 1787514686 | 31.67° C | 52% | 1015.8 hPa | 0 mm | - | 313 W/m² | - |
| 1787514386 | 31.67° C | 50% | 1016 hPa | 0 mm | - | 700 W/m² | - |
| 1787514085 | 31.67° C | 46% | 1016.1 hPa | 0 mm | - | 682 W/m² | - |
| 1787513781 | 31.67° C | 49% | 1015.9 hPa | 0 mm | - | 674 W/m² | - |
| 1787513477 | 31.67° C | 49% | 1016.2 hPa | 0 mm | - | 657 W/m² | - |
| 1787513173 | 31.11° C | 51% | 1016.1 hPa | 0 mm | - | 665 W/m² | - |
| 1787512869 | 31.67° C | 52% | 1016.1 hPa | 0 mm | - | 675 W/m² | - |
| 1787512564 | 31.67° C | 51% | 1016.1 hPa | 0 mm | - | 714 W/m² | - |
| 1787512260 | 31.11° C | 51% | 1015.9 hPa | 0 mm | - | 731 W/m² | - |
| 1787511955 | 31.11° C | 51% | 1016.1 hPa | 0 mm | - | 701 W/m² | - |
| 1787511650 | 31.11° C | 48% | 1016.2 hPa | 0 mm | - | 712 W/m² | - |
| 1787511349 | 31.67° C | 48% | 1016.3 hPa | 0 mm | - | 150 W/m² | - |
| 1787511043 | 31.67° C | 49% | 1016.3 hPa | 0 mm | - | 106 W/m² | - |
| 1787510738 | 31.11° C | 49% | 1016.3 hPa | 0 mm | - | 186 W/m² | - |
| 1787510433 | 30.56° C | 50% | 1016.5 hPa | 0 mm | - | 725 W/m² | - |
| 1787510129 | 31.11° C | 50% | 1016.6 hPa | 0 mm | - | 721 W/m² | - |
| 1787509826 | 30.56° C | 52% | 1016.5 hPa | 0 mm | - | 726 W/m² | - |
| 1787509521 | 31.11° C | 50% | 1016.6 hPa | 0 mm | - | 734 W/m² | - |
| 1787509217 | 30.56° C | 54% | 1016.5 hPa | 0 mm | - | 753 W/m² | - |
| 1787508911 | 30.56° C | 54% | 1016.8 hPa | 0 mm | - | 732 W/m² | - |
| 1787508608 | 30.56° C | 56% | 1016.5 hPa | 0 mm | - | 726 W/m² | - |
| 1787508303 | 31.11° C | 53% | 1016.8 hPa | 0 mm | - | 732 W/m² | - |
| 1787507998 | 30.56° C | 55% | 1016.8 hPa | 0 mm | - | 734 W/m² | - |
| 1787507695 | 31.11° C | 52% | 1016.7 hPa | 0 mm | - | 739 W/m² | - |
| 1787507390 | 30.56° C | 53% | 1016.9 hPa | 0 mm | - | 739 W/m² | - |
* Rain latest hour (hover to see other rain measurements)
** Current wind speed in m/s (hover to see current wind gust speed)